Cape Girardeau, MO

4:00 PM CST on December 15, 2019 (GMT -0600)
Cape Girardeau Regional

Weather History for KCGI - October, 2019

Change the Weather History Date:

Thursday, October 31, 2019

  Actual Average Record
Temperature  
Mean Temperature 35 °F 53 °F  
Max Temperature 41 °F 65 °F 82 °F (1968)
Min Temperature 29 °F 41 °F 26 °F (1993)
Degree Days  
Heating Degree Days 30 12  
Month to date heating degree days 261 256  
Since 1 July heating degree days 261 303  
Cooling Degree Days 0 0  
Month to date cooling degree days 51 29  
Year to date cooling degree days 1775 1451  
Moisture  
Dew Point 32 °F    
Average Humidity 73    
Maximum Humidity 92    
Minimum Humidity 54    
Precipitation  
Precipitation 0.34 in 0.12 in 2.83 in (1972)
Month to date precipitation 7.84 3.79  
Year to date precipitation 55.51 38.12  
Sea Level Pressure  
Sea Level Pressure 30.09 in    
Wind  
Wind Speed 10 mph (NW)    
Max Wind Speed 25 mph    
Max Gust Speed 36 mph    
Visibility 8 miles    
Events Rain    
T = Trace of Precipitation, MM = Missing Value Source: NWS Daily Summary

Daily Weather History Graph

Daily Weather History Graph

Search for Another Location

Airport or City:

Astronomy

Oct. 31, 2019 Rise Set
Actual Time 7:21 AM CDT 6:01 PM CDT
Civil Twilight 6:54 AM CDT 6:28 PM CDT
Nautical Twilight 6:23 AM CDT 6:59 PM CDT
Astronomical Twilight 5:53 AM CDT 7:29 PM CDT
Moon 11:06 AM CDT (10/31) 9:01 PM CDT (10/31)
Length of Visible Light 11h 34m
Length of Day
10h 40m
Waxing Crescent, 16% of the Moon is Illuminated
Oct 31
Waxing Crescent
Nov 4
First Quarter
Nov 12
Full
Nov 19
Last Quarter
Nov 26
New

Hourly Weather History & Observations

Time (CDT) Temp. Windchill Dew Point Humidity Pressure Visibility Wind Dir Wind Speed Gust Speed Precip Events Conditions
12:02 AM 42.1 °F 35.7 °F 39.9 °F 92% 29.93 in 4.0 mi NW 11.5 mph - 0.02 in Rain Light Rain
1:14 AM 41.0 °F 33.1 °F 37.9 °F 89% 29.95 in 10.0 mi NW 15.0 mph - 0.01 in   Overcast
1:20 AM 41.0 °F 33.9 °F 37.9 °F 89% 29.93 in 6.0 mi NNW 12.7 mph - 0.02 in Rain Rain
1:35 AM 41.0 °F 35.8 °F 37.9 °F 89% 29.94 in 4.0 mi NW 8.1 mph - 0.06 in Rain Rain
1:41 AM 41.0 °F 34.3 °F 37.9 °F 89% 29.94 in 5.0 mi NW 11.5 mph - 0.07 in Rain Rain
1:50 AM 41.0 °F 33.5 °F 37.4 °F 87% 29.93 in 5.0 mi NNW 13.8 mph - 0.09 in Rain Rain
1:53 AM 41.0 °F 34.3 °F 37.9 °F 89% 29.93 in 6.0 mi NW 11.5 mph - 0.10 in Rain Rain
1:59 AM 41.0 °F 35.2 °F 37.9 °F 89% 29.93 in 6.0 mi NW 9.2 mph - 0.01 in Rain Rain
2:37 AM 41.0 °F 33.5 °F 37.9 °F 89% 29.94 in 4.0 mi WNW 13.8 mph - 0.10 in Rain Rain
2:53 AM 39.9 °F 32.5 °F 37.9 °F 93% 29.93 in 4.0 mi NW 12.7 mph - 0.16 in Rain Heavy Rain
3:19 AM 39.9 °F 32.5 °F 37.0 °F 89% 29.93 in 7.0 mi NW 12.7 mph 23.0 mph 0.06 in Rain Light Rain
3:31 AM 39.9 °F 32.9 °F 37.0 °F 89% 29.93 in 8.0 mi NW 11.5 mph 24.2 mph 0.08 in Rain Light Rain
3:53 AM 39.9 °F 31.1 °F 36.0 °F 86% 29.94 in 10.0 mi NW 17.3 mph 29.9 mph 0.08 in   Overcast
4:53 AM 37.9 °F 29.2 °F 33.1 °F 83% 29.97 in 10.0 mi NW 15.0 mph 25.3 mph N/A   Overcast
5:53 AM 37.0 °F 27.7 °F 32.0 °F 82% 29.98 in 9.0 mi NW 16.1 mph 25.3 mph 0.00 in   Overcast
6:53 AM 37.0 °F 27.0 °F 30.9 °F 79% 30.01 in 10.0 mi NW 18.4 mph 27.6 mph N/A   Overcast
7:53 AM 36.0 °F 27.5 °F 30.0 °F 79% 30.03 in 10.0 mi WNW 12.7 mph - N/A   Overcast
8:53 AM 37.0 °F 28.1 °F 30.0 °F 76% 30.07 in 10.0 mi WNW 15.0 mph 24.2 mph N/A   Overcast
9:53 AM 37.0 °F 29.3 °F 30.0 °F 76% 30.09 in 10.0 mi WNW 11.5 mph - N/A   Overcast
10:53 AM 37.0 °F 27.7 °F 28.0 °F 70% 30.12 in 10.0 mi NW 16.1 mph 25.3 mph N/A   Overcast
11:53 AM 37.0 °F 27.0 °F 28.0 °F 70% 30.15 in 10.0 mi WNW 18.4 mph 29.9 mph N/A   Overcast
12:25 PM 37.0 °F 26.4 °F 27.0 °F 67% 30.16 in 10.0 mi WNW 20.7 mph 27.6 mph N/A   Overcast
12:42 PM 36.0 °F 25.3 °F 27.0 °F 70% 30.17 in 10.0 mi WNW 19.6 mph 28.8 mph N/A   Overcast
12:53 PM 36.0 °F 26.0 °F 28.0 °F 73% 30.18 in 10.0 mi WNW 17.3 mph - N/A   Overcast
1:29 PM 37.0 °F 26.7 °F 28.0 °F 70% 30.18 in 10.0 mi WNW 19.6 mph 26.5 mph N/A   Overcast
1:53 PM 37.0 °F 27.0 °F 26.1 °F 65% 30.19 in 10.0 mi WNW 18.4 mph 26.5 mph N/A   Overcast
2:53 PM 37.9 °F 30.0 °F 26.1 °F 62% 30.22 in 10.0 mi NW 12.7 mph 24.2 mph N/A   Overcast
4:53 PM 39.9 °F 33.9 °F 25.0 °F 55% 30.24 in 10.0 mi NW 9.2 mph - N/A   Clear
5:53 PM 37.9 °F 32.1 °F 26.1 °F 62% 30.25 in 10.0 mi NW 8.1 mph - N/A   Clear
6:53 PM 33.1 °F 30.0 °F 28.0 °F 82% 30.27 in 10.0 mi South 3.5 mph - N/A   Clear
7:53 PM 33.1 °F - 30.0 °F 89% 30.31 in 10.0 mi Calm Calm - N/A   Clear
8:53 PM 32.0 °F - 28.0 °F 85% 30.32 in 10.0 mi Calm Calm - N/A   Clear
9:53 PM 30.0 °F - 28.0 °F 92% 30.33 in 10.0 mi Calm Calm - N/A   Clear
10:53 PM 30.0 °F - 27.0 °F 88% 30.34 in 10.0 mi Calm Calm - N/A   Clear
11:53 PM 30.0 °F - 28.0 °F 92% 30.34 in 10.0 mi Calm Calm - N/A   Clear